Regional Weather Roundup
Issued by NWS

Home | Current Version | Previous Version | Graphics & Text | Print | Product List | Glossary On
Versions: 1 2 3 4 5 6 7 8 9 10 11 12 13 14 15 16 17 18 19 20 21 22 23 24 25 26 27 28 29 30 31 32 33 34 35 36 37 38 39 40 41 42 43 44 45 46 47 48 49 50
000
ASUS43 KFSD 241710
RWRSD

WEATHER ROUNDUP FOR SOUTH DAKOTA
NATIONAL WEATHER SERVICE SIOUX FALLS SD
1200 PM CDT SUN MAY 24 2015

NOTE: "FAIR" INDICATES FEW OR NO CLOUDS BELOW 12,000 FEET WITH NO
SIGNIFICANT WEATHER AND/OR OBSTRUCTIONS TO VISIBILITY.


SDZ001>005-009-010-012>017-241800-
NORTHWEST AND NORTH CENTRAL SOUTH DAKOTA

CITY           SKY/WX    TMP DP  RH WIND       PRES   REMARKS
BUFFALO          N/A     54  52  93 NE16      29.92F
FAITH            N/A     56  51  84 NE14      29.95F
MOBRIDGE       CLOUDY    66  52  60 E15       29.93F
$$

SDZ012>016-024>037-041>051-057-063-072>074-241800-
SOUTHWEST AND SOUTH CENTRAL SOUTH DAKOTA

CITY           SKY/WX    TMP DP  RH WIND       PRES   REMARKS
RAPID CTY ARPT LGT RAIN  54  52  93 E13       29.92S
PIERRE         CLOUDY    61  55  81 E15       29.91F
CUSTER         LGT RAIN  47  45  93 E10       29.95R FOG
ELLSWORTH AFB  LGT RAIN  53  53 100 E14       29.92S
PHILIP         LGT RAIN  57  56  96 E17       29.91R FOG
PINE RIDGE     LGT RAIN  55  52  89 E7        29.89S FOG
SPEARFISH      LGT RAIN  50  50 100 E13       29.95S
WINNER         CLOUDY    59  56  89 E12       29.90S
$$

SDZ004>011-016>023-039-040-241800-
NORTHEAST SOUTH DAKOTA

CITY           SKY/WX    TMP DP  RH WIND       PRES   REMARKS
ABERDEEN       CLOUDY    65  52  62 E13       29.96S
WATERTOWN      CLOUDY    60  54  80 E8        29.95F
BROOKINGS      CLOUDY    61  57  88 E7        29.93F
SISSETON         N/A     63  54  72 E6        29.97F
$$

SDZ017-020-022-023-036>040-048>070-241800-
SOUTHEAST SOUTH DAKOTA

CITY           SKY/WX    TMP DP  RH WIND       PRES   REMARKS
SIOUX FALLS    LGT RAIN  60  59  96 E13       29.89F FOG
HURON          LGT RAIN  59  58  96 E10       29.92F FOG
CHAMBERLAIN    CLOUDY    58  57  97 E8        29.90F FOG
MITCHELL       LGT RAIN  62  60  93 E9        29.90F FOG
YANKTON        CLOUDY    61  57  88 E8        29.87S
$$

ABBREVIATIONS USED IN REMARKS
   TC - TEMPERATURE IN CELSIUS
  WCI - WIND CHILL INDEX
   HX - HEAT INDEX
  VSB - VISIBILITY



USA.gov is the U.S. government's official web portal to all federal, state and local government web resources and services.